Robstown, TX

7:49 AM CST on January 17, 2018 (GMT -0600)
Robstown

Weather History for KRBO - December, 2012

Change the Weather History Date:

Friday, December 14, 2012

  Actual Average (KCRP) Record (KCRP)
Temperature  
Mean Temperature 74 °F -  
Max Temperature 79 °F 66 °F 85 °F (1973)
Min Temperature 68 °F 44 °F 27 °F (1919)
Cooling Degree Days 8    
Growing Degree Days 24 (Base 50)    
Moisture  
Dew Point 64 °F    
Average Humidity 75    
Maximum Humidity 86    
Minimum Humidity 60    
Precipitation  
Precipitation 0.00 in - - ()
Sea Level Pressure  
Sea Level Pressure 30.02 in    
Wind  
Wind Speed 13 mph (SE)    
Max Wind Speed 28 mph    
Max Gust Speed 33 mph    
Visibility 10 miles    
Events Rain    
Averages and records for this station are not official NWS values.
T = Trace of Precipitation, MM = Missing Value Source: NWS Daily Summary

Daily Weather History Graph

Daily Weather History Graph

Search for Another Location

Airport or City:

Trip Planner

Search our weather history database for the weather conditions in past years. The results will help you decide how hot, cold, wet, or windy it might be!

Date:

Astronomy

Dec. 14, 2012 Rise Set
Actual Time 7:13 AM CST 5:37 PM CST
Civil Twilight 6:48 AM CST 6:03 PM CST
Nautical Twilight 6:18 AM CST 6:32 PM CST
Astronomical Twilight 5:50 AM CST 7:01 PM CST
Moon 8:23 AM CST (12/14) 7:26 PM CST (12/14)
Length of Visible Light 11h 15m
Length of Day
10h 23m
Waxing Crescent, 3% of the Moon is Illuminated
Dec 14
Waxing Crescent
Dec 19
First Quarter
Dec 28
Full
Jan 4
Last Quarter
Jan 11
New

Hourly Weather History & Observations

Time (CST) Temp. Dew Point Humidity Pressure Visibility Wind Dir Wind Speed Gust Speed Precip Events Conditions
12:15 AM 68.5 °F 59.2 °F 72% 30.14 in 10.0 mi ESE 6.9 mph - N/A   Overcast
12:35 AM 68.9 °F 59.5 °F 72% 30.13 in 10.0 mi ESE 9.2 mph - N/A   Overcast
12:55 AM 68.5 °F 59.9 °F 74% 30.13 in 10.0 mi ESE 8.1 mph - N/A   Overcast
1:15 AM 68.5 °F 59.9 °F 74% 30.12 in 10.0 mi East 9.2 mph - N/A   Overcast
1:35 AM 68.9 °F 60.1 °F 73% 30.12 in 10.0 mi ESE 8.1 mph - N/A   Overcast
1:55 AM 68.9 °F 60.4 °F 74% 30.11 in 10.0 mi ESE 8.1 mph - N/A   Overcast
2:15 AM 68.9 °F 60.8 °F 75% 30.11 in 10.0 mi ESE 8.1 mph - N/A   Overcast
2:35 AM 68.9 °F 60.8 °F 75% 30.11 in 10.0 mi ESE 9.2 mph - N/A   Overcast
2:55 AM 68.9 °F 61.2 °F 76% 30.11 in 10.0 mi SE 8.1 mph - N/A   Overcast
3:15 AM 68.9 °F 61.0 °F 76% 30.10 in 10.0 mi ESE 8.1 mph - N/A   Overcast
3:35 AM 68.9 °F 60.8 °F 75% 30.10 in 10.0 mi ESE 6.9 mph - N/A   Overcast
3:55 AM 69.1 °F 60.8 °F 75% 30.10 in 10.0 mi SE 9.2 mph - N/A   Overcast
4:15 AM 69.1 °F 60.8 °F 75% 30.10 in 10.0 mi SE 9.2 mph - N/A   Overcast
4:35 AM 69.3 °F 60.8 °F 74% 30.09 in 10.0 mi ESE 10.4 mph - N/A   Overcast
5:15 AM 69.4 °F 61.3 °F 75% 30.08 in 10.0 mi SE 10.4 mph - N/A   Overcast
5:35 AM 69.3 °F 61.3 °F 76% 30.09 in 10.0 mi SE 9.2 mph - N/A   Overcast
5:55 AM 69.4 °F 61.7 °F 76% 30.09 in 10.0 mi SE 9.2 mph - N/A   Overcast
6:15 AM 69.8 °F 61.7 °F 75% 30.09 in 10.0 mi SE 9.2 mph - N/A Rain Light Rain
6:35 AM 68.9 °F 62.6 °F 80% 30.09 in 10.0 mi SE 9.2 mph - N/A   Drizzle
6:55 AM 68.9 °F 62.8 °F 81% 30.09 in 10.0 mi SE 9.2 mph - N/A   Overcast
7:15 AM 68.9 °F 63.0 °F 81% 30.09 in 10.0 mi SE 10.4 mph - N/A   Light Drizzle
7:35 AM 68.9 °F 63.5 °F 83% 30.10 in 10.0 mi SE 9.2 mph - N/A   Light Drizzle
7:55 AM 68.4 °F 63.9 °F 85% 30.09 in 10.0 mi SE 9.2 mph - N/A Rain Light Rain
8:15 AM 68.9 °F 64.4 °F 86% 30.10 in 10.0 mi SE 9.2 mph - N/A   Scattered Clouds
8:35 AM 69.3 °F 64.4 °F 84% 30.11 in 10.0 mi SE 9.2 mph - N/A   Scattered Clouds
8:55 AM 70.0 °F 64.4 °F 82% 30.11 in 10.0 mi SSE 8.1 mph - N/A   Overcast
9:15 AM 70.9 °F 64.6 °F 80% 30.11 in 10.0 mi SE 11.5 mph - N/A   Overcast
9:35 AM 72.1 °F 65.1 °F 78% 30.11 in 10.0 mi SE 16.1 mph - N/A   Mostly Cloudy
9:55 AM 73.2 °F 65.1 °F 76% 30.10 in 10.0 mi SE 16.1 mph 20.7 mph N/A   Scattered Clouds
10:15 AM 74.3 °F 64.8 °F 72% 30.09 in 10.0 mi SE 17.3 mph 21.9 mph N/A   Clear
10:35 AM 75.2 °F 63.7 °F 67% 30.09 in 10.0 mi SE 21.9 mph 26.5 mph N/A   Scattered Clouds
10:55 AM 76.1 °F 63.7 °F 65% 30.09 in 10.0 mi SSE 17.3 mph 24.2 mph N/A   Mostly Cloudy
11:15 AM 77.0 °F 63.7 °F 63% 30.09 in 10.0 mi SSE 20.7 mph - N/A   Overcast
11:35 AM 76.3 °F 63.9 °F 65% 30.07 in 10.0 mi SSE 18.4 mph 26.5 mph N/A   Overcast
12:15 PM 78.1 °F 64.2 °F 62% 30.04 in 10.0 mi SSE 23.0 mph 29.9 mph N/A   Overcast
12:35 PM 79.2 °F 64.4 °F 60% 30.02 in 10.0 mi SSE 26.5 mph 32.2 mph N/A   Overcast
12:55 PM 77.9 °F 64.4 °F 63% 30.01 in 10.0 mi SSE 23.0 mph 29.9 mph N/A   Overcast
1:15 PM 77.7 °F 64.4 °F 63% 30.00 in 10.0 mi SSE 23.0 mph 28.8 mph N/A   Overcast
1:35 PM 78.8 °F 64.6 °F 62% 29.98 in 10.0 mi SSE 24.2 mph 29.9 mph N/A   Mostly Cloudy
1:55 PM 78.1 °F 64.6 °F 63% 29.96 in 10.0 mi SE 27.6 mph 33.4 mph N/A   Overcast
2:15 PM 77.9 °F 64.9 °F 64% 29.96 in 10.0 mi SSE 21.9 mph - N/A   Overcast
2:35 PM 78.4 °F 65.1 °F 63% 29.95 in 10.0 mi SSE 25.3 mph 31.1 mph N/A   Overcast
2:55 PM 77.2 °F 65.1 °F 66% 29.94 in 10.0 mi SSE 24.2 mph 31.1 mph N/A   Overcast
3:15 PM 77.4 °F 65.5 °F 67% 29.93 in 10.0 mi SSE 24.2 mph 29.9 mph N/A   Overcast
3:35 PM 77.4 °F 65.5 °F 67% 29.92 in 10.0 mi SSE 23.0 mph 31.1 mph N/A   Overcast
3:55 PM 77.0 °F 65.5 °F 67% 29.91 in 10.0 mi SSE 25.3 mph - N/A   Overcast
4:15 PM 76.5 °F 65.7 °F 69% 29.91 in 10.0 mi SSE 26.5 mph 32.2 mph N/A   Overcast
4:35 PM 76.1 °F 66.0 °F 71% 29.91 in 10.0 mi SSE 24.2 mph 31.1 mph N/A   Overcast
4:55 PM 75.6 °F 66.2 °F 73% 29.92 in 10.0 mi SSE 21.9 mph 31.1 mph N/A   Overcast
5:15 PM 75.2 °F 66.4 °F 74% 29.91 in 10.0 mi SSE 20.7 mph 28.8 mph N/A   Overcast
5:35 PM 74.7 °F 66.4 °F 75% 29.91 in 10.0 mi SSE 21.9 mph 26.5 mph N/A   Overcast
5:55 PM 74.7 °F 66.6 °F 76% 29.92 in 10.0 mi SSE 18.4 mph 26.5 mph N/A   Overcast
6:15 PM 74.7 °F 66.6 °F 76% 29.92 in 10.0 mi SSE 16.1 mph 20.7 mph N/A   Overcast
6:35 PM 74.7 °F 66.6 °F 76% 29.92 in 10.0 mi SE 19.6 mph - N/A   Overcast
6:55 PM 74.7 °F 66.7 °F 76% 29.92 in 10.0 mi SE 19.6 mph - N/A   Overcast
7:15 PM 74.5 °F 66.7 °F 77% 29.92 in 10.0 mi SE 17.3 mph - N/A   Overcast
7:35 PM 74.3 °F 67.1 °F 78% 29.93 in 10.0 mi SSE 13.8 mph - N/A   Overcast
8:15 PM 74.3 °F 67.1 °F 78% 29.92 in 10.0 mi SSE 18.4 mph 21.9 mph N/A   Overcast
8:35 PM 73.9 °F 67.1 °F 79% 29.93 in 10.0 mi SSE 17.3 mph 23.0 mph N/A   Mostly Cloudy
8:55 PM 73.6 °F 67.1 °F 80% 29.92 in 10.0 mi SSE 17.3 mph 20.7 mph N/A   Mostly Cloudy
9:15 PM 73.6 °F 67.3 °F 81% 29.92 in 10.0 mi SSE 15.0 mph 23.0 mph N/A   Overcast
9:35 PM 73.8 °F 67.6 °F 81% 29.94 in 10.0 mi SSE 16.1 mph 20.7 mph N/A   Overcast
9:55 PM 73.4 °F 67.3 °F 81% 29.93 in 10.0 mi SSE 13.8 mph 19.6 mph N/A   Overcast
10:15 PM 72.9 °F 67.3 °F 83% 29.92 in 10.0 mi SSE 15.0 mph - N/A   Scattered Clouds
10:35 PM 72.5 °F 67.3 °F 84% 29.92 in 10.0 mi SSE 16.1 mph - N/A   Clear
10:55 PM 72.5 °F 67.3 °F 84% 29.92 in 10.0 mi SSE 13.8 mph - N/A   Clear
11:15 PM 72.1 °F 67.1 °F 84% 29.92 in 10.0 mi SSE 13.8 mph - N/A   Scattered Clouds
11:35 PM 71.8 °F 67.1 °F 85% 29.92 in 10.0 mi SSE 13.8 mph - N/A   Mostly Cloudy
11:55 PM 71.8 °F 67.1 °F 85% 29.92 in 10.0 mi SSE 11.5 mph - N/A   Mostly Cloudy